sat.trackr.live / text

‹ back to catalog

STARLINK-31810

NORAD 59799 · 2024-093T

PAYLOAD ACTIVE UNKNOWN

§ Identity

Operator
Country
US
Launch date
2024-05-18
Launch site
AFETR
Launch vehicle
Mass (kg)
RCS (m²)

Purposes: comms

External: N2YO · Heavens-Above · Gunter

§ Orbital elements

Epoch: 2026-09-21T04:45:08.858880Z

Period
94.27 min
Inclination
43.0013°
Eccentricity
0.0001259
Mean motion
15.27578947 rev/d
Perigee alt
482.2 km
Apogee alt
483.9 km
Semi-major
6,861.2 km
B*
1.7857e-5
RAAN
184.9553°
Arg perigee
262.1081°
Mean anomaly
97.9628°
Rev number
13,259

§ Raw data

STARLINK-318101 59799U 24093T   26264.19801920  .00000229  00000+0  17857-4 0  99912 59799  43.0013 184.9553 0001259 262.1081  97.9628 15.27578947132590

JSON: /api/v1/satellites/59799 · /tle

For live sub-satellite position, see the globe view (requires WebGL).

§ Visibility from observer

Set your observer location to see the next 7 days of passes ≥ 10°. The values pass through the URL so the page stays shareable.

No JS? Fill the form by hand. The geolocation button needs JavaScript.